Location: Rowland
(34.5359°N, 79.2929°W)
Time: 14:18:52
(UTC+00:00)

Transit 4A - Pass Details

Date: 10 October 2022
Orbit: 871 x 972 km, 66.8° (Epoch: 29 November)

Event Time Altitude Azimuth Distance (km) Brightness Sun altitude
Rises 10:02:15 0° 342° (NNW) 3,478 10.7 -16.5°
Reaches altitude 10° 10:05:00 10° 352° (N) 2,529 10.1 -16.0°
Maximum altitude 10:10:16 34° 56° (ENE) 1,394 9.4 -14.9°
Drops below altitude 10° 10:15:30 10° 121° (ESE) 2,516 11.1 -13.8°
Sets 10:18:12 0° 130° (SE) 3,457 11.7 -13.3°
